Location: Memmingen
(47.9830°N, 10.1733°E)
Time: 06:51:52
(UTC+01:00)

ISS - Pass Details

Date: 12 November 2017
Orbit: 401 x 407 km, 51.6° (Epoch: 25 November)

Event Time Altitude Azimuth Distance (km) Brightness Sun altitude
Exits shadow 04:20:17 13° 70° (ENE) 1,307 -0.5 -30.2°
Drops below altitude 10° 04:20:41 10° 73° (ENE) 1,457 -0.1 -30.2°
Sets 04:22:50 0° 81° (E) 2,316 1.2 -29.8°
